TimeEST,TemperatureF,Dew PointF,Humidity,Sea Level PressureIn,VisibilityMPH,Wind Direction,Wind SpeedMPH,Gust SpeedMPH,PrecipitationIn,Events,Conditions,WindDirDegrees,DateUTC
12:36 AM,19.4,17.6,93,29.82,2.5,Calm,Calm,-,0.00,Snow,Light Snow,0,2013-02-05 05:36:00
12:53 AM,19.9,17.1,89,29.87,2.5,Calm,Calm,-,0.00,Snow,Light Snow,0,2013-02-05 05:53:00
1:11 AM,19.4,17.6,93,29.80,3.0,Calm,Calm,-,0.00,Snow,Light Snow,0,2013-02-05 06:11:00
1:53 AM,19.9,17.1,89,29.88,4.0,Calm,Calm,-,0.00,Snow,Light Snow,0,2013-02-05 06:53:00
2:34 AM,19.4,17.6,93,29.83,5.0,NNE,3.5,-,0.00,,Overcast,30,2013-02-05 07:34:00
2:43 AM,19.4,17.6,93,29.83,5.0,NNE,4.6,-,0.00,,Overcast,20,2013-02-05 07:43:00
2:53 AM,19.0,17.1,92,29.89,4.0,North,4.6,-,0.00,,Overcast,10,2013-02-05 07:53:00
3:37 AM,19.4,15.8,86,29.81,5.0,Calm,Calm,-,N/A,,Overcast,0,2013-02-05 08:37:00
3:53 AM,19.0,16.0,88,29.87,5.0,NE,3.5,-,N/A,,Overcast,50,2013-02-05 08:53:00
4:53 AM,19.0,16.0,88,29.90,6.0,Calm,Calm,-,N/A,,Overcast,0,2013-02-05 09:53:00
5:53 AM,19.0,15.1,85,29.90,6.0,NNE,4.6,-,N/A,,Overcast,20,2013-02-05 10:53:00
6:39 AM,17.6,15.8,93,29.82,7.0,NE,6.9,-,N/A,,Overcast,40,2013-02-05 11:39:00
6:53 AM,17.1,14.0,88,29.90,8.0,NNE,4.6,-,N/A,,Overcast,30,2013-02-05 11:53:00
7:24 AM,17.6,12.2,79,29.84,7.0,NNE,3.5,-,N/A,,Overcast,20,2013-02-05 12:24:00
7:50 AM,17.6,14.0,86,29.85,6.0,NNE,3.5,-,N/A,,Mostly Cloudy,20,2013-02-05 12:50:00
7:53 AM,17.1,14.0,88,29.91,5.0,Calm,Calm,-,N/A,,Mostly Cloudy,0,2013-02-05 12:53:00
8:53 AM,16.0,14.0,92,29.91,4.0,NE,3.5,-,N/A,,Mostly Cloudy,40,2013-02-05 13:53:00
9:53 AM,19.0,15.1,85,29.92,6.0,Calm,Calm,-,N/A,,Overcast,0,2013-02-05 14:53:00
10:53 AM,21.9,17.1,82,29.91,6.0,Calm,Calm,-,N/A,,Haze,0,2013-02-05 15:53:00
11:08 AM,21.2,17.6,86,29.85,1.8,Calm,Calm,-,0.00,Snow,Light Snow,0,2013-02-05 16:08:00
11:53 AM,23.0,18.0,81,29.90,1.2,Calm,Calm,-,0.00,Snow,Light Snow,0,2013-02-05 16:53:00
12:20 PM,23.0,17.6,80,29.83,2.5,WSW,3.5,-,0.00,Snow,Light Snow,240,2013-02-05 17:20:00
12:53 PM,23.0,17.1,78,29.88,1.2,West,3.5,-,0.00,Snow,Light Snow,280,2013-02-05 17:53:00
1:24 PM,24.8,19.4,80,29.80,3.0,Calm,Calm,-,0.00,Snow,Light Snow,0,2013-02-05 18:24:00
1:38 PM,24.8,17.6,74,29.79,4.0,Calm,Calm,-,0.00,,Haze,0,2013-02-05 18:38:00
1:53 PM,24.1,17.1,75,29.85,4.0,Calm,Calm,-,0.01,,Haze,0,2013-02-05 18:53:00
2:53 PM,24.1,18.0,77,29.85,7.0,WSW,4.6,-,0.00,,Overcast,250,2013-02-05 19:53:00
3:53 PM,25.0,18.0,75,29.86,10.0,SW,4.6,-,N/A,,Overcast,230,2013-02-05 20:53:00
4:53 PM,25.0,16.0,69,29.86,10.0,SSW,4.6,-,N/A,,Mostly Cloudy,210,2013-02-05 21:53:00
5:02 PM,24.8,15.8,69,29.80,10.0,WSW,4.6,-,N/A,,Scattered Clouds,240,2013-02-05 22:02:00
5:53 PM,24.1,16.0,71,29.88,10.0,WSW,5.8,-,N/A,,Mostly Cloudy,240,2013-02-05 22:53:00
6:07 PM,24.8,17.6,74,29.82,10.0,SW,3.5,-,N/A,,Overcast,230,2013-02-05 23:07:00
6:53 PM,24.1,17.1,75,29.89,10.0,SSW,4.6,-,N/A,,Overcast,210,2013-02-05 23:53:00
7:11 PM,24.8,17.6,74,29.84,10.0,SSW,4.6,-,N/A,,Overcast,200,2013-02-06 00:11:00
7:53 PM,24.1,18.0,77,29.90,10.0,South,3.5,-,N/A,,Overcast,170,2013-02-06 00:53:00
8:53 PM,23.0,18.0,81,29.92,4.0,SSW,4.6,-,0.00,Snow,Light Snow,210,2013-02-06 01:53:00
9:14 PM,24.8,19.4,80,29.87,2.0,SW,3.5,-,0.00,Snow,Light Snow,220,2013-02-06 02:14:00
9:21 PM,24.8,19.4,80,29.87,1.0,SW,5.8,-,0.00,Snow,Light Snow,220,2013-02-06 02:21:00
9:28 PM,24.8,19.4,80,29.87,0.8,SW,5.8,-,0.00,Snow,Light Snow,220,2013-02-06 02:28:00
9:36 PM,24.8,19.4,80,29.87,0.8,SSW,4.6,-,0.00,Snow,Light Snow,210,2013-02-06 02:36:00
9:50 PM,24.8,21.2,86,29.86,1.0,South,5.8,-,0.00,Snow,Light Snow,190,2013-02-06 02:50:00
9:53 PM,24.1,21.0,88,29.92,1.2,SSW,4.6,-,0.00,Snow,Light Snow,210,2013-02-06 02:53:00
10:06 PM,23.0,19.4,86,29.87,1.5,SW,6.9,-,0.00,Snow,Light Snow,220,2013-02-06 03:06:00
10:20 PM,23.0,19.4,86,29.87,2.0,SSW,4.6,-,0.00,Snow,Light Snow,210,2013-02-06 03:20:00
10:31 PM,21.2,19.4,93,29.87,4.0,SW,4.6,-,0.00,Snow,Light Snow,220,2013-02-06 03:31:00
10:42 PM,23.0,19.4,86,29.87,5.0,SW,6.9,-,0.00,,Overcast,220,2013-02-06 03:42:00
10:49 PM,23.0,19.4,86,29.87,8.0,SW,5.8,-,0.00,,Overcast,220,2013-02-06 03:49:00
10:53 PM,23.0,19.0,85,29.92,8.0,SW,4.6,-,0.00,,Overcast,220,2013-02-06 03:53:00
11:48 PM,23.0,19.4,86,29.87,6.0,SSW,4.6,-,N/A,,Overcast,200,2013-02-06 04:48:00
11:53 PM,23.0,19.9,88,29.93,6.0,SSW,4.6,-,N/A,,Overcast,200,2013-02-06 04:53:00